Find Starlink 31611

NORAD ID: 59325 Int'l Des: 2024-057 Owner: SPXS Country: US Constellation: starlink operational
LEOCIRCULAR

現在のビュー

3D地球を読み込み中...

About Starlink 31611

Starlink 31611 (NORAD 59325) is a starlink constellation satellite (v2 mini) launched Mar 25, 2024 by SPXS of US. It operates in LEO, CIRCULAR orbit with a mass of 730.00 kg.

Starlink 31611について

説明を読み込み中...

次回通過

Passes for default location (London). Set your location on the main map for personalized predictions.

高度履歴

Loading altitude history...

軌道要素

1 59325U 24057F 26173.69568110 .00000638 00000-0 32734-4 0 9997
2 59325 43.0026 314.4658 0002584 280.5967 79.4594 15.27584379125892
Epoch: Jun 22, 2026 • Age: 24 hours

現在のステータス

高度 486.2 km
速度 7.63 km/s
衛星直下点 37.37°N, 156.08°W
打ち上げ日 Mar 25, 2024
運用期間 2.2 years
タイプ internet

技術仕様

分類 Payload
質量 730.00 kg
乾燥質量 700.00 kg
総質量 730.00 kg
長さ 0.30 m
直径 4.10 m
スパン 29.00 m
形状 Box + pan
製造者 SPXS
バスタイプ Starlink V2M
フェーズステータス In Orbit
所有者/国 SPXS/US

Most Searched